Belize City, Belize

2:57 PM CST on December 10, 2016 (GMT -0600)
Philip S W Goldson International

Weather History for MZBZ - August, 2014

Change the Weather History Date:

Saturday, August 9, 2014

  Actual Average Record
Temperature  
Mean Temperature 85 °F -  
Max Temperature 90 °F 89 °F 90 °F (2014)
Min Temperature 80 °F 76 °F 73 °F (2001)
Cooling Degree Days 20    
Growing Degree Days 35 (Base 50)    
Moisture  
Dew Point 76 °F    
Average Humidity 73    
Maximum Humidity 89    
Minimum Humidity 56    
Precipitation  
Precipitation 0.12 in 0.28 in - ()
Sea Level Pressure  
Sea Level Pressure 29.94 in    
Wind  
Wind Speed 6 mph ()    
Max Wind Speed 12 mph    
Max Gust Speed -    
Visibility 7.9 miles    
Events Rain , Thunderstorm    
Averages and records for this station are not official NWS values.
T = Trace of Precipitation, MM = Missing Value Source: Averaged Metar Reports

Daily Weather History Graph

Daily Weather History Graph

Search for Another Location

Airport or City:

Trip Planner

Search our weather history database for the weather conditions in past years. The results will help you decide how hot, cold, wet, or windy it might be!

Date:

Astronomy

Aug. 09, 2014 Rise Set
Actual Time 5:34 AM CST 6:22 PM CST
Civil Twilight 5:11 AM CST 6:45 PM CST
Nautical Twilight 4:45 AM CST 7:12 PM CST
Astronomical Twilight 4:17 AM CST 7:39 PM CST
Moon 5:27 PM CST (8/9) 4:15 AM CST (8/9)
Length of Visible Light 13h 33m
Length of Day
12h 48m
Waxing Gibbous, 98% of the Moon is Illuminated
Aug 9
Waxing Gibbous
Aug 10
Full
Aug 17
Last Quarter
Aug 25
New
Sep 2
First Quarter

Hourly Weather History & Observations

Time (CST) Temp. Heat Index Dew Point Humidity Pressure Visibility Wind Dir Wind Speed Gust Speed Precip Events Conditions
3:00 AM 82 °F - 77 °F 79% 29.91 in 12 mi ESE 3.5 mph - - Thunderstorm Thunderstorm
4:45 AM - - - N/A% - 6.2 mi East 10.4 mph - N/A   Mostly Cloudy
5:00 AM 80.6 °F 87.1 °F 77.0 °F 89% 29.92 in 6.2 mi East 4.6 mph - N/A   Scattered Clouds
6:00 AM 81 °F - 76 °F 82% 29.94 in 12 mi East 4.6 mph - -   Partly Cloudy
6:00 AM 80.6 °F 87.1 °F 77.0 °F 89% 29.93 in 6.2 mi East 4.6 mph - N/A   Scattered Clouds
7:00 AM 84.2 °F 96.1 °F 78.8 °F 84% 29.94 in 6.2 mi East 5.8 mph - N/A   Partly Cloudy
8:00 AM 86.0 °F 96.9 °F 77.0 °F 74% 29.96 in 6.2 mi ESE 5.8 mph - N/A Thunderstorm Thunderstorm
9:00 AM 87 °F - 75 °F 59% 29.98 in 12 mi East 9.2 mph - - Thunderstorm Light Thunderstorm
9:00 AM 87.8 °F 97.6 °F 75.2 °F 66% 29.97 in 6.2 mi East 9.2 mph - N/A   Scattered Clouds
10:00 AM 87.8 °F 99.7 °F 77.0 °F 70% 29.97 in 6.2 mi ESE 6.9 mph - N/A   Mostly Cloudy
11:00 AM 86.0 °F 95.1 °F 75.2 °F 70% 29.98 in 6.2 mi SSE 6.9 mph - N/A Rain Light Rain Showers
12:00 PM 89 °F - 75 °F 56% 29.96 in 12 mi SSE 9.2 mph - - Rain Light Rain Showers
12:00 PM 87.8 °F 97.6 °F 75.2 °F 66% 29.95 in 6.2 mi SSE 9.2 mph - N/A   Scattered Clouds
1:00 PM 87.8 °F 97.6 °F 75.2 °F 66% 29.94 in 6.2 mi ESE 8.1 mph - N/A   Scattered Clouds
2:00 PM 87.8 °F 99.7 °F 77.0 °F 70% 29.92 in 6.2 mi East 9.2 mph - N/A Rain Light Rain Showers
3:00 PM 88 °F - 75 °F 58% 29.91 in 10 mi East 8.1 mph - - Rain Light Rain Showers
3:00 PM 87.8 °F 97.6 °F 75.2 °F 66% 29.90 in 6.2 mi East 8.1 mph - N/A   Scattered Clouds
4:00 PM 87.8 °F 99.7 °F 77.0 °F 70% 29.91 in 5.0 mi ENE 11.5 mph - N/A Rain Light Rain Showers
5:00 PM 82.4 °F 90.9 °F 77.0 °F 84% 29.90 in 6.2 mi East 6.9 mph - N/A   Partly Cloudy
6:00 PM 83 °F - 77 °F 78% 29.91 in 12 mi East 6.9 mph - -   Partly Cloudy
6:00 PM 82.4 °F 90.9 °F 77.0 °F 84% 29.91 in 6.2 mi East 6.9 mph - N/A   Partly Cloudy
9:00 PM 82 °F - 77 °F 81% 29.97 in 12 mi ESE 3.5 mph - -   Scattered Clouds